Weather History for Monroe, WI

Change the Weather History Date:

Sunday, April 20, 2014

  Actual Average Record
Temperature  
Mean Temperature 64 °F -  
Max Temperature 79 °F 0 °F 79 °F (2014)
Min Temperature 50 °F - 28 °F (2013)
Growing Degree Days 14 (Base 50)    
Moisture  
Dew Point 41 °F    
Average Humidity 45    
Maximum Humidity 61    
Minimum Humidity 29    
Precipitation  
Precipitation 0.00 in - - ()
Sea Level Pressure  
Sea Level Pressure 30.09 in    
Wind  
Wind Speed 13 mph (South)    
Max Wind Speed 20 mph    
Max Gust Speed 24 mph    
Visibility 10 miles    
Events      
Averages and records for this station are not official NWS values.
T = Trace of Precipitation, MM = Missing Value Source: NWS Daily Summary

Daily Weather History Graph

Daily Weather History Graph

Search for Another Location

Airport:

Trip Planner

Search our weather history database for the weather conditions in past years. The results will help you decide how hot, cold, wet, or windy it might be!

Date:

Astronomy

Apr. 20, 2014 Rise Set
Actual Time 6:09 AM CDT 7:46 PM CDT
Civil Twilight 5:39 AM CDT 8:15 PM CDT
Nautical Twilight 5:03 AM CDT 8:52 PM CDT
Astronomical Twilight 4:25 AM CDT 9:30 PM CDT
Moon 12:28 AM CDT (4/20) 10:27 AM CDT (4/20)
Length of Visible Light 14h 36m
Length of Day
13h 37m
Waning Gibbous, 68% of the Moon is Illuminated
Apr 20
Waning Gibbous
Apr 22
Last Quarter
Apr 29
New
May 6
First Quarter
May 14
Full

Hourly Weather History & Observations

Time (CDT) Temp. Dew Point Humidity Pressure Visibility Wind Dir Wind Speed Gust Speed Precip Events Conditions
12:15 AM 52.9 °F 36.0 °F 53% 30.18 in 10.0 mi SSE 11.5 mph - N/A   Clear
12:35 AM 53.6 °F 36.3 °F 52% 30.18 in 10.0 mi SSE 13.8 mph 18.4 mph N/A   Clear
12:55 AM 54.1 °F 36.5 °F 51% 30.17 in 10.0 mi SSE 15.0 mph 19.6 mph N/A   Clear
1:15 AM 53.6 °F 36.7 °F 53% 30.17 in 10.0 mi SSE 16.1 mph 21.9 mph N/A   Clear
1:35 AM 53.6 °F 36.7 °F 53% 30.17 in 10.0 mi SSE 13.8 mph 19.6 mph N/A   Scattered Clouds
1:55 AM 53.2 °F 36.9 °F 54% 30.17 in 10.0 mi South 15.0 mph - N/A   Scattered Clouds
2:15 AM 53.1 °F 37.0 °F 55% 30.16 in 10.0 mi South 16.1 mph - N/A   Clear
2:35 AM 52.9 °F 37.0 °F 55% 30.16 in 10.0 mi South 16.1 mph - N/A   Clear
2:55 AM 52.7 °F 37.4 °F 56% 30.15 in 10.0 mi South 16.1 mph - N/A   Clear
3:15 AM 52.7 °F 37.4 °F 56% 30.15 in 10.0 mi South 16.1 mph - N/A   Clear
3:35 AM 52.2 °F 37.4 °F 57% 30.15 in 10.0 mi South 16.1 mph - N/A   Clear
3:55 AM 51.8 °F 37.6 °F 58% 30.15 in 10.0 mi South 13.8 mph - N/A   Clear
4:20 AM 51.8 °F 37.6 °F 58% 30.15 in 10.0 mi South 13.8 mph - N/A   Clear
4:35 AM 51.4 °F 37.8 °F 60% 30.15 in 10.0 mi South 16.1 mph - N/A   Clear
4:55 AM 51.3 °F 37.8 °F 60% 30.15 in 10.0 mi South 16.1 mph 20.7 mph N/A   Clear
5:15 AM 51.3 °F 37.8 °F 60% 30.15 in 10.0 mi South 16.1 mph - N/A   Clear
5:35 AM 50.9 °F 37.9 °F 61% 30.15 in 10.0 mi South 15.0 mph - N/A   Clear
5:55 AM 50.9 °F 37.8 °F 61% 30.15 in 10.0 mi South 16.1 mph - N/A   Scattered Clouds
6:15 AM 50.9 °F 37.8 °F 61% 30.15 in 10.0 mi South 13.8 mph - N/A   Scattered Clouds
6:35 AM 51.1 °F 37.8 °F 60% 30.16 in 10.0 mi South 15.0 mph - N/A   Clear
6:55 AM 51.1 °F 37.9 °F 61% 30.15 in 10.0 mi South 12.7 mph - N/A   Mostly Cloudy
7:15 AM 51.3 °F 37.9 °F 60% 30.15 in 10.0 mi South 13.8 mph - N/A   Overcast
7:35 AM 52.0 °F 38.3 °F 60% 30.15 in 10.0 mi South 12.7 mph - N/A   Overcast
7:55 AM 52.7 °F 38.7 °F 59% 30.15 in 10.0 mi South 12.7 mph - N/A   Mostly Cloudy
8:15 AM 53.4 °F 38.5 °F 57% 30.15 in 10.0 mi South 13.8 mph - N/A   Overcast
8:35 AM 54.5 °F 38.8 °F 56% 30.15 in 10.0 mi South 13.8 mph - N/A   Overcast
8:55 AM 55.9 °F 39.4 °F 54% 30.14 in 10.0 mi South 13.8 mph - N/A   Overcast
9:15 AM 57.2 °F 39.2 °F 51% 30.14 in 10.0 mi South 12.7 mph - N/A   Overcast
9:35 AM 60.1 °F 39.7 °F 47% 30.14 in 10.0 mi South 12.7 mph - N/A   Overcast
9:55 AM 62.6 °F 39.7 °F 43% 30.13 in 10.0 mi South 17.3 mph 21.9 mph N/A   Scattered Clouds
10:15 AM 65.1 °F 40.3 °F 40% 30.13 in 10.0 mi SSW 17.3 mph 21.9 mph N/A   Scattered Clouds
10:35 AM 65.5 °F 40.1 °F 39% 30.13 in 10.0 mi SSW 19.6 mph 24.2 mph N/A   Overcast
10:55 AM 67.1 °F 40.6 °F 38% 30.13 in 10.0 mi SSW 16.1 mph - N/A   Scattered Clouds
11:15 AM 68.5 °F 41.5 °F 37% 30.13 in 10.0 mi South 16.1 mph - N/A   Mostly Cloudy
11:35 AM 69.3 °F 41.2 °F 36% 30.13 in 10.0 mi SSW 12.7 mph - N/A   Scattered Clouds
12:00 PM 71.8 °F 42.4 °F 35% 30.13 in 10.0 mi SW 17.3 mph 23.0 mph N/A   Mostly Cloudy
12:15 PM 72.5 °F 42.6 °F 34% 30.12 in 10.0 mi SSW 16.1 mph 19.6 mph N/A   Overcast
12:35 PM 72.0 °F 42.3 °F 34% 30.12 in 10.0 mi SSW 16.1 mph - N/A   Mostly Cloudy
12:55 PM 74.8 °F 42.8 °F 32% 30.11 in 10.0 mi SSW 10.4 mph 19.6 mph N/A   Clear
1:15 PM 75.2 °F 42.6 °F 31% 30.09 in 10.0 mi SW 12.7 mph 18.4 mph N/A   Clear
1:35 PM 73.9 °F 42.6 °F 32% 30.08 in 10.0 mi SSW 9.2 mph 17.3 mph N/A   Clear
1:55 PM 75.7 °F 43.0 °F 31% 30.07 in 10.0 mi South 9.2 mph 16.1 mph N/A   Clear
2:15 PM 78.1 °F 44.2 °F 30% 30.07 in 10.0 mi SSW 13.8 mph 20.7 mph N/A   Clear
2:35 PM 78.1 °F 43.3 °F 29% 30.07 in 10.0 mi WSW 12.7 mph - N/A   Clear
2:55 PM 78.6 °F 43.5 °F 29% 30.06 in 10.0 mi SSW 9.2 mph 21.9 mph N/A   Clear
3:15 PM 79.2 °F 44.2 °F 29% 30.06 in 10.0 mi SW 9.2 mph - N/A   Clear
3:35 PM 79.2 °F 43.9 °F 29% 30.05 in 10.0 mi SW 15.0 mph 19.6 mph N/A   Scattered Clouds
3:55 PM 77.4 °F 43.3 °F 30% 30.05 in 10.0 mi SSW 9.2 mph 21.9 mph N/A   Scattered Clouds
4:15 PM 78.8 °F 44.2 °F 29% 30.04 in 10.0 mi SSW 12.7 mph - N/A   Mostly Cloudy
4:35 PM 78.3 °F 43.7 °F 29% 30.03 in 10.0 mi SSW 12.7 mph 18.4 mph N/A   Scattered Clouds
5:00 PM 77.4 °F 43.7 °F 30% 30.04 in 10.0 mi SW 8.1 mph - N/A   Clear
5:15 PM 78.1 °F 43.7 °F 29% 30.03 in 10.0 mi WSW 10.4 mph - N/A   Clear
5:40 PM 77.4 °F 43.7 °F 30% 30.02 in 10.0 mi SSW 11.5 mph - N/A   Clear
6:15 PM 76.5 °F 43.9 °F 31% 30.02 in 10.0 mi SSW 9.2 mph - N/A   Scattered Clouds
6:35 PM 75.2 °F 44.1 °F 33% 30.01 in 10.0 mi SSW 8.1 mph - N/A   Clear
6:55 PM 73.8 °F 44.4 °F 35% 30.00 in 10.0 mi South 10.4 mph - N/A   Mostly Cloudy
7:15 PM 72.1 °F 44.2 °F 37% 30.00 in 10.0 mi SSW 10.4 mph - N/A   Scattered Clouds
7:35 PM 71.1 °F 44.6 °F 39% 30.00 in 10.0 mi SSW 9.2 mph - N/A   Scattered Clouds
7:55 PM 69.4 °F 44.6 °F 41% 29.99 in 10.0 mi SSW 8.1 mph - N/A   Scattered Clouds
8:15 PM 68.5 °F 44.8 °F 42% 29.99 in 10.0 mi South 9.2 mph - N/A   Scattered Clouds
8:35 PM 68.7 °F 44.6 °F 42% 29.98 in 10.0 mi South 12.7 mph - N/A   Clear
8:55 PM 67.6 °F 44.6 °F 43% 29.98 in 10.0 mi South 9.2 mph - N/A   Clear
9:15 PM 67.6 °F 44.4 °F 43% 29.99 in 10.0 mi South 6.9 mph - N/A   Clear
9:35 PM 66.9 °F 44.6 °F 45% 29.99 in 10.0 mi South 9.2 mph - N/A   Mostly Cloudy
9:55 PM 67.6 °F 43.9 °F 42% 29.99 in 10.0 mi South 10.4 mph - N/A   Mostly Cloudy
10:15 PM 67.1 °F 43.2 °F 42% 29.99 in 10.0 mi South 8.1 mph - N/A   Mostly Cloudy
10:35 PM 66.0 °F 43.2 °F 43% 29.99 in 10.0 mi South 9.2 mph - N/A   Scattered Clouds
10:55 PM 64.6 °F 43.7 °F 47% 29.98 in 10.0 mi South 10.4 mph - N/A   Clear
11:15 PM 63.7 °F 44.4 °F 50% 29.98 in 10.0 mi SSW 9.2 mph - N/A   Clear
11:35 PM 64.4 °F 44.4 °F 48% 29.98 in 10.0 mi South 10.4 mph - N/A   Scattered Clouds
11:55 PM 64.0 °F 44.6 °F 49% 29.98 in 10.0 mi SSW 10.4 mph - N/A   Mostly Cloudy